Weather History for Dayton Wright, OH

Change the Weather History Date:

Friday, January 4, 2013

  Actual Average (KFFO) Record (KFFO)
Temperature  
Mean Temperature 28 °F -  
Max Temperature 32 °F 36 °F 64 °F (1997)
Min Temperature 25 °F 22 °F 0 °F (1999)
Degree Days  
Heating Degree Days 36    
Moisture  
Dew Point 19 °F    
Average Humidity 67    
Maximum Humidity 75    
Minimum Humidity 56    
Precipitation  
Precipitation 0.00 in - - ()
Sea Level Pressure  
Sea Level Pressure 30.31 in    
Wind  
Wind Speed 10 mph (WSW)    
Max Wind Speed 17 mph    
Max Gust Speed 29 mph    
Visibility 10 miles    
Events      
Averages and records for this station are not official NWS values.
T = Trace of Precipitation, MM = Missing Value Source: NWS Daily Summary

Daily Weather History Graph

Daily Weather History Graph

Search for Another Location

Airport:

Trip Planner

Search our weather history database for the weather conditions in past years. The results will help you decide how hot, cold, wet, or windy it might be!

Date:

Astronomy

Jan. 04, 2013 Rise Set
Actual Time 7:57 AM EST 5:26 PM EST
Civil Twilight 7:27 AM EST 5:56 PM EST
Nautical Twilight 6:54 AM EST 6:30 PM EST
Astronomical Twilight 6:21 AM EST 7:02 PM EST
Moon No Moon Rise 11:41 AM EST (1/4)
Length of Visible Light 10h 28m
Length of Day
9h 28m
Waning Gibbous, 55% of the Moon is Illuminated
Jan 4
Waning Gibbous
Jan 4
Last Quarter
Jan 11
New
Jan 18
First Quarter
Jan 26
Full

Hourly Weather History & Observations

Time (EST) Temp. Windchill Dew Point Humidity Pressure Visibility Wind Dir Wind Speed Gust Speed Precip Events Conditions
12:53 AM 30.0 °F 22.4 °F 21.0 °F 69% 30.30 in 10.0 mi WSW 8.1 mph - N/A   Overcast
1:53 AM 30.0 °F 21.7 °F 21.9 °F 72% 30.30 in 10.0 mi West 9.2 mph 20.7 mph N/A   Overcast
2:53 AM 30.0 °F 21.7 °F 21.9 °F 72% 30.30 in 10.0 mi WSW 9.2 mph - N/A   Overcast
3:53 AM 28.9 °F 20.4 °F 21.9 °F 75% 30.30 in 10.0 mi WSW 9.2 mph 19.6 mph N/A   Overcast
4:53 AM 28.0 °F 17.0 °F 19.0 °F 69% 30.30 in 10.0 mi West 13.8 mph 28.8 mph N/A   Overcast
5:19 AM 26.6 °F 16.8 °F 17.6 °F 69% 30.27 in 10.0 mi West 10.4 mph - N/A   Partly Cloudy
5:46 AM 26.6 °F 19.1 °F 17.6 °F 69% 30.27 in 10.0 mi West 6.9 mph - N/A   Mostly Cloudy
5:53 AM 27.0 °F 18.0 °F 18.0 °F 69% 30.31 in 10.0 mi West 9.2 mph - N/A   Mostly Cloudy
6:53 AM 26.1 °F 16.2 °F 18.0 °F 71% 30.31 in 10.0 mi WSW 10.4 mph 18.4 mph N/A   Overcast
7:44 AM 26.6 °F 17.5 °F 17.6 °F 69% 30.28 in 10.0 mi WSW 9.2 mph - N/A   Partly Cloudy
8:53 AM 25.0 °F 17.1 °F 18.0 °F 75% 30.32 in 10.0 mi WSW 6.9 mph - N/A   Clear
9:53 AM 26.1 °F 16.8 °F 19.0 °F 75% 30.34 in 10.0 mi West 9.2 mph - N/A   Partly Cloudy
10:36 AM 28.4 °F 21.2 °F 19.4 °F 69% 30.31 in 10.0 mi West 6.9 mph - N/A   Mostly Cloudy
10:53 AM 28.0 °F 18.1 °F 19.9 °F 72% 30.35 in 10.0 mi WSW 11.5 mph - N/A   Mostly Cloudy
11:06 AM 28.4 °F 18.5 °F 21.2 °F 74% 30.32 in 10.0 mi WSW 11.5 mph - N/A   Scattered Clouds
11:53 AM 30.0 °F 18.3 °F 19.9 °F 66% 30.34 in 10.0 mi WSW 17.3 mph 20.7 mph N/A   Clear
12:53 PM 30.0 °F 18.7 °F 19.9 °F 66% 30.31 in 10.0 mi WSW 16.1 mph 21.9 mph N/A   Clear
1:53 PM 30.9 °F 19.8 °F 17.1 °F 57% 30.30 in 10.0 mi SW 16.1 mph - N/A   Clear
2:53 PM 32.0 °F 21.2 °F 18.0 °F 56% 30.30 in 10.0 mi WSW 16.1 mph 27.6 mph N/A   Clear
3:53 PM 32.0 °F 22.1 °F 18.0 °F 56% 30.30 in 10.0 mi WSW 13.8 mph 21.9 mph N/A   Clear
4:53 PM 30.9 °F 21.2 °F 18.0 °F 59% 30.32 in 10.0 mi West 12.7 mph - N/A   Clear
5:53 PM 30.0 °F 22.4 °F 17.1 °F 59% 30.32 in 10.0 mi WSW 8.1 mph - N/A   Clear
6:53 PM 28.9 °F 20.4 °F 17.1 °F 61% 30.32 in 10.0 mi WSW 9.2 mph - N/A   Clear
7:53 PM 28.0 °F 19.3 °F 17.1 °F 63% 30.33 in 10.0 mi WSW 9.2 mph - N/A   Clear
8:53 PM 28.9 °F 18.2 °F 18.0 °F 64% 30.33 in 10.0 mi SW 13.8 mph 21.9 mph N/A   Clear
9:53 PM 28.0 °F 18.6 °F 18.0 °F 66% 30.32 in 10.0 mi SW 10.4 mph - N/A   Clear
10:53 PM 27.0 °F 16.7 °F 19.0 °F 72% 30.34 in 10.0 mi SW 11.5 mph - N/A   Clear
11:53 PM 26.1 °F 17.6 °F 19.0 °F 75% 30.35 in 10.0 mi SW 8.1 mph - N/A   Clear